TimeCDT,TemperatureF,Dew PointF,Humidity,Sea Level PressureIn,VisibilityMPH,Wind Direction,Wind SpeedMPH,Gust SpeedMPH,PrecipitationIn,Events,Conditions,WindDirDegrees,DateUTC
1:53 AM,33.1,25.0,72,30.27,10.0,NE,6.9,-,N/A,,Clear,50,2013-04-03 06:53:00
2:53 AM,32.0,23.0,69,30.27,10.0,NE,6.9,-,N/A,,Clear,40,2013-04-03 07:53:00
3:53 AM,32.0,21.9,66,30.25,10.0,NE,8.1,-,N/A,,Clear,40,2013-04-03 08:53:00
4:53 AM,30.0,21.0,69,30.26,10.0,NE,5.8,-,N/A,,Clear,40,2013-04-03 09:53:00
5:53 AM,30.9,19.9,64,30.30,10.0,ENE,5.8,-,N/A,,Clear,60,2013-04-03 10:53:00
6:53 AM,30.9,19.0,61,30.32,10.0,NE,6.9,-,N/A,,Clear,50,2013-04-03 11:53:00
7:53 AM,33.1,19.0,56,30.32,10.0,NE,8.1,-,N/A,,Clear,50,2013-04-03 12:53:00
8:53 AM,37.9,21.0,51,30.32,10.0,ENE,11.5,-,N/A,,Clear,60,2013-04-03 13:53:00
9:53 AM,42.1,19.9,41,30.32,10.0,East,11.5,-,N/A,,Clear,80,2013-04-03 14:53:00
10:53 AM,45.0,19.0,36,30.32,10.0,ENE,13.8,24.2,N/A,,Clear,70,2013-04-03 15:53:00
11:53 AM,46.9,19.0,33,30.29,10.0,NE,15.0,-,N/A,,Clear,50,2013-04-03 16:53:00
12:53 PM,48.9,18.0,29,30.27,10.0,ENE,12.7,-,N/A,,Clear,60,2013-04-03 17:53:00
1:53 PM,50.0,17.1,27,30.25,10.0,ENE,13.8,-,N/A,,Clear,60,2013-04-03 18:53:00
2:53 PM,52.0,16.0,24,30.24,10.0,East,11.5,-,N/A,,Partly Cloudy,80,2013-04-03 19:53:00
3:53 PM,53.1,17.1,24,30.22,10.0,NE,13.8,20.7,N/A,,Overcast,50,2013-04-03 20:53:00
4:53 PM,52.0,16.0,24,30.22,10.0,NNE,11.5,-,N/A,,Mostly Cloudy,30,2013-04-03 21:53:00
5:53 PM,52.0,16.0,24,30.21,10.0,ENE,8.1,-,N/A,,Clear,60,2013-04-03 22:53:00
6:53 PM,50.0,18.0,28,30.21,10.0,NE,6.9,-,N/A,,Clear,50,2013-04-03 23:53:00
7:53 PM,48.9,18.0,29,30.20,10.0,ENE,5.8,-,N/A,,Clear,60,2013-04-04 00:53:00
8:53 PM,46.9,18.0,32,30.21,10.0,ENE,6.9,-,N/A,,Clear,70,2013-04-04 01:53:00
9:53 PM,44.1,19.0,37,30.21,10.0,East,4.6,-,N/A,,Clear,80,2013-04-04 02:53:00
10:53 PM,41.0,19.9,43,30.21,10.0,ENE,5.8,-,N/A,,Clear,70,2013-04-04 03:53:00
11:53 PM,41.0,21.0,45,30.21,10.0,Calm,Calm,-,N/A,,Mostly Cloudy,0,2013-04-04 04:53:00